DECAYED

STARLINK-1996, 47591 (Decayed)

Orbit data source: Space-Track

STARLINK-1996, 47591 was a payload satellite owned by SpaceX/Seattle (US) in LEO that was launched on Thu, 04 Feb 2021 UTC via an FALCON 9 launch vehicle from the Air Force Eastern Test Range (AFETR). Payload-class satellites include a variety of spacecraft equipped with specific instruments for various scientific and technological missions. These include communications satellites like Starlink; space stations such as the ISS; scientific satellites like the Hubble; Earth observation satellites from companies like Planet Labs, Umbra, and HawkEye 360; GPS; miniature CubeSats for education and research; and military/defense satellites.

Not visible in the next 10 days
Identifier
47591, 2021-009AV
Orbit
Decayed
Country
Flag of USUS
Related business
Manufacturer
SpaceX/Seattle
Mission
Decayed Commercial Communications
Bus & Motor
STARLINK, Unknown motor
Mass
260 kg wet, ~248 kg dry
Launch date (UTC)
2021-02-04 (5 years ago)
Launch vehicle
FALCON 9
Launch site
Air Force Eastern Test Range (AFETR)
Object type
Payload
Rocket body
Debris
Shape & HBR
Box + 1 Pan, 10.1 m
Radar Cross Section
13.562 m², Large (>1 m²)

Expand to show TLE details & history
Last TLE update: 1 year ago

TLE from 1 year ago
0 STARLINK-1996
1 47591U 21009AV  25026.07419479  .26787332  12199-4  31067-2 0  9997
2 47591  53.0268  19.3558 0006526 117.2309 355.9971 16.35928260220392
Epoch: 2025-01-26T01:46Z
TLE epoch observation values (Epoch: 2025-01-26T01:46:50.429Z)
Latitude
47.39046°
Longitude
-7.42799°
Altitude
177.561 km
Speed
7.808 km/s
True Right ascension
09h 39m 35s
True Declination
47° 12' 14"
Sunlit
Object was in full shadow at epoch
Visualization orbit readout
Latitude
Unknown
Longitude
Unknown
Altitude
Unknown
Speed
Unknown
Apparent Right ascension
Unknown
Apparent Declination
Unknown
Sunlit
N/A
Visualization observer readout
Local Sidereal Time
21:24:49
Azimuth
Unknown
Elevation
Unknown
Doppler factor
Unknown
Orbital elements
Apogee altitude
181.224 km
Perigee altitude
172.669 km
Semi-major axis
6,555.084 km
Eccentricity
0.00065
Inclination
53.0268°
RAAN
19.3558°
Arg. of periapsis
117.2309°
True anomaly
355.99188°
Mean anomaly
355.9971°
Eccentric anomaly
355.99449°
Mean motion
4.08955 °/min
Orbital period
88.03 mins
BSTAR
0.0031067
Loading maneuver chart data...
Computing Atmospheric mass density...

Documentation

Showing up to 5 results
|